x

Loch Glacarnoch Saws (03031) Weather Station

3:00pm - Thu 23rd Feb 2017 All times are GMT.

  • Wind
    3mph
  • Air Temp 37°f
  • Sea Pressure 996mb
  • Loch Glacarnoch Saws
  • Loch Glacarnoch Saws

More Historic Weather Station data

Upgrade to MSW Pro to gain access to the past 30 days of data for over 8000 Wavebouys and Weather Stations around the globe.

Join Pro

Comparision Forecast

View Surf forecast
   
Thu 02/23 3:00pm 3
mph
996mb 37f
2:00pm 5
mph
995mb 36f
1:00pm 9
mph
994mb 34f
12:00pm 9
mph
993mb 33f
Wed 02/22 11:00am 22 41 mph 994mb 40f
10:00am 24 43 mph 994mb 39f
9:00am 19 45 mph 993mb 38f
8:00am 31 47 mph 992mb 39f
7:00am 33 55 mph 992mb 39f
6:00am 31 53 mph 992mb 38f
5:00am 31 56 mph 992mb 38f
3:00am 40 57 mph 991mb 40f
2:00am 37 60 mph 991mb 38f
1:00am 28 49 mph 992mb 35f
12:00am 33 52 mph 992mb 38f
Tue 02/21 11:00pm 32 53 mph 992mb 37f
10:00pm 30 46 mph 992mb 40f
9:00pm 32 48 mph 991mb 40f
8:00pm 29 47 mph 991mb 41f
7:00pm 33 49 mph 990mb 43f
6:00pm 29 45 mph 989mb 47f
5:00pm 29 40 mph 991mb 45f
4:00pm 29 54 mph 993mb 45f
3:00pm 22 43 mph 994mb 47f
2:00pm 29 46 mph 996mb 46f
1:00pm 29 43 mph 997mb 46f
12:00pm 21 38 mph 999mb 46f
11:00am 23 33 mph 1001mb 43f
10:00am 15 28 mph 1003mb 44f
9:00am 6
mph
1004mb 43f
8:00am 19 31 mph 1005mb 42f
7:00am 17
mph
1006mb 41f
6:00am 17 33 mph 1007mb 40f
5:00am 26 40 mph 1007mb 40f
4:00am 26 38 mph 1007mb 40f
3:00am 22 33 mph 1008mb 39f
2:00am 24 34 mph 1008mb 39f
1:00am 18 31 mph 1009mb 38f
Mon 02/20 11:00pm 25 38 mph 1008mb 39f
10:00pm 25 39 mph 1008mb 38f
9:00pm 26 38 mph 1008mb 40f
8:00pm 18 45 mph 1009mb 38f
7:00pm 28 37 mph 1008mb 41f
6:00pm 25 33 mph 1008mb 40f
5:00pm 23 33 mph 1008mb 40f
4:00pm 19 34 mph 1008mb 42f
3:00pm 21 43 mph 1007mb 44f
2:00pm 21 30 mph 1006mb 46f
1:00pm 21 37 mph 1007mb 45f
12:00pm 16 33 mph 1007mb 44f
11:00am 17 39 mph 1006mb 45f
8:00am 26 40 mph 1003mb 49f
5:00am 29 54 mph 1003mb 52f
3:00am 29 41 mph 1005mb 52f
2:00am 22 39 mph 1006mb 51f
1:00am 26 41 mph 1007mb 50f
12:00am 32 41 mph 1007mb 49f
Sun 02/19 11:00pm 32 44 mph 1007mb 50f
10:00pm 26 38 mph 1007mb 52f
9:00pm 25 37 mph 1007mb 53f
8:00pm 23 36 mph 1007mb 53f
7:00pm 23 34 mph 1008mb 53f
6:00pm 19 29 mph 1009mb 53f